Time,TemperatureF,DewpointF,PressureIn,WindDirection,WindDirectionDegrees,WindSpeedMPH,WindSpeedGustMPH,Humidity,HourlyPrecipIn,Conditions,Clouds,dailyrainin,SoftwareType,DateUTC
2013-01-12 00:00:00,53.3,47.6,29.82,SSW,202,4.0,10.0,81,0.00,,-RA,0.00,VWS V14.00,2013-01-12 06:00:00,
2013-01-12 00:01:00,53.0,47.7,29.82,SSW,201,6.0,8.0,82,0.00,,CLR,0.00,VWS V14.00,2013-01-12 06:01:00,
2013-01-12 00:06:00,53.0,47.7,29.82,South,182,6.0,8.0,82,0.00,,CLR,0.00,VWS V14.00,2013-01-12 06:06:00,
2013-01-12 00:11:00,53.0,47.7,29.82,SSW,199,6.0,9.0,82,0.00,,CLR,0.00,VWS V14.00,2013-01-12 06:11:00,
2013-01-12 00:16:00,53.1,47.8,29.82,South,183,4.0,9.0,82,0.00,,CLR,0.00,VWS V14.00,2013-01-12 06:16:00,
2013-01-12 00:21:00,53.0,47.7,29.82,South,190,4.0,6.0,82,0.00,,CLR,0.00,VWS V14.00,2013-01-12 06:21:00,
2013-01-12 00:26:00,52.9,47.9,29.82,South,176,4.0,7.0,83,0.00,,CLR,0.00,VWS V14.00,2013-01-12 06:26:00,
2013-01-12 00:30:00,53.0,47.7,29.82,South,191,3.0,9.0,82,0.00,,-RA,0.00,VWS V14.00,2013-01-12 06:30:00,
2013-01-12 00:31:00,52.9,47.9,29.82,South,184,6.0,8.0,83,0.00,,CLR,0.00,VWS V14.00,2013-01-12 06:31:00,
2013-01-12 00:36:00,52.8,47.8,29.82,South,190,7.0,8.0,83,0.00,,CLR,0.00,VWS V14.00,2013-01-12 06:36:00,
2013-01-12 00:41:00,52.7,47.7,29.82,SSW,209,7.0,8.0,83,0.00,,CLR,0.00,VWS V14.00,2013-01-12 06:41:00,
2013-01-12 00:46:00,53.0,48.0,29.82,South,180,2.0,8.0,83,0.00,,CLR,0.00,VWS V14.00,2013-01-12 06:46:00,
2013-01-12 00:51:00,53.0,48.0,29.83,South,176,5.0,7.0,83,0.00,,CLR,0.00,VWS V14.00,2013-01-12 06:51:00,
2013-01-12 00:55:00,53.3,48.3,29.83,SSW,196,3.0,10.0,83,0.00,,CLR,0.00,VWS V14.00,2013-01-12 06:55:00,
2013-01-12 01:00:00,53.6,48.6,29.83,South,186,5.0,10.0,83,0.00,,CLR,0.00,VWS V14.00,2013-01-12 07:00:00,
2013-01-12 01:05:00,53.7,48.7,29.83,South,169,7.0,10.0,83,0.00,,CLR,0.00,VWS V14.00,2013-01-12 07:05:00,
2013-01-12 01:10:00,53.6,48.6,29.83,SSW,194,3.0,10.0,83,0.00,,CLR,0.00,VWS V14.00,2013-01-12 07:10:00,
2013-01-12 01:15:00,53.7,48.7,29.83,SSW,205,4.0,10.0,83,0.00,,CLR,0.00,VWS V14.00,2013-01-12 07:15:00,
2013-01-12 01:20:00,53.9,48.9,29.83,South,184,4.0,6.0,83,0.00,,CLR,0.00,VWS V14.00,2013-01-12 07:20:00,
2013-01-12 01:25:00,54.0,49.0,29.84,South,180,4.0,9.0,83,0.00,,CLR,0.00,VWS V14.00,2013-01-12 07:25:00,
2013-01-12 01:30:00,54.2,49.2,29.84,SSW,197,4.0,12.0,83,0.00,,CLR,0.00,VWS V14.00,2013-01-12 07:30:00,
2013-01-12 01:35:00,54.2,49.2,29.84,SSW,194,5.0,12.0,83,0.00,,CLR,0.00,VWS V14.00,2013-01-12 07:35:00,
2013-01-12 01:40:00,54.0,49.0,29.84,South,187,3.0,12.0,83,0.00,,CLR,0.00,VWS V14.00,2013-01-12 07:40:00,
2013-01-12 01:45:00,54.0,49.3,29.84,South,184,5.0,12.0,84,0.00,,CLR,0.00,VWS V14.00,2013-01-12 07:45:00,
2013-01-12 01:50:00,54.2,49.2,29.84,SSW,195,5.0,6.0,83,0.00,,CLR,0.00,VWS V14.00,2013-01-12 07:50:00,
2013-01-12 01:55:00,54.3,49.3,29.84,South,179,5.0,8.0,83,0.00,,CLR,0.00,VWS V14.00,2013-01-12 07:55:00,
2013-01-12 02:00:00,54.3,49.6,29.84,South,184,6.0,8.0,84,0.00,,CLR,0.00,VWS V14.00,2013-01-12 08:00:00,
2013-01-12 02:05:00,54.4,49.7,29.85,South,184,4.0,10.0,84,0.00,,CLR,0.00,VWS V14.00,2013-01-12 08:05:00,
2013-01-12 02:10:00,54.6,49.9,29.85,SSW,198,6.0,10.0,84,0.00,,CLR,0.00,VWS V14.00,2013-01-12 08:10:00,
2013-01-12 02:15:00,54.7,49.7,29.85,South,182,4.0,10.0,83,0.00,,CLR,0.00,VWS V14.00,2013-01-12 08:15:00,
2013-01-12 02:20:00,54.6,49.9,29.85,South,181,5.0,5.0,84,0.00,,CLR,0.00,VWS V14.00,2013-01-12 08:20:00,
2013-01-12 02:25:00,54.6,49.9,29.85,SSW,198,7.0,9.0,84,0.00,,CLR,0.00,VWS V14.00,2013-01-12 08:25:00,
2013-01-12 02:30:00,54.6,49.9,29.85,SSW,194,5.0,9.0,84,0.00,,CLR,0.00,VWS V14.00,2013-01-12 08:30:00,
2013-01-12 02:35:00,54.6,49.9,29.85,South,187,6.0,9.0,84,0.00,,CLR,0.00,VWS V14.00,2013-01-12 08:35:00,
2013-01-12 02:40:00,54.6,49.9,29.86,SSW,196,4.0,9.0,84,0.00,,CLR,0.00,VWS V14.00,2013-01-12 08:40:00,
2013-01-12 02:45:00,54.6,49.9,29.85,SSE,156,5.0,9.0,84,0.00,,CLR,0.00,VWS V14.00,2013-01-12 08:45:00,
2013-01-12 02:50:00,54.6,49.9,29.85,SSW,195,4.0,5.0,84,0.00,,CLR,0.00,VWS V14.00,2013-01-12 08:50:00,
2013-01-12 02:55:00,54.6,49.9,29.85,SSW,202,4.0,9.0,84,0.00,,CLR,0.00,VWS V14.00,2013-01-12 08:55:00,
2013-01-12 03:00:00,54.5,49.8,29.85,South,186,4.0,9.0,84,0.00,,CLR,0.00,VWS V14.00,2013-01-12 09:00:00,
2013-01-12 03:05:00,54.5,50.1,29.85,SW,214,4.0,9.0,85,0.00,,CLR,0.00,VWS V14.00,2013-01-12 09:05:00,
2013-01-12 03:10:00,54.4,50.0,29.85,South,186,6.0,9.0,85,0.00,,CLR,0.00,VWS V14.00,2013-01-12 09:10:00,
2013-01-12 03:15:00,54.2,49.8,29.85,South,186,4.0,9.0,85,0.00,,CLR,0.00,VWS V14.00,2013-01-12 09:15:00,
2013-01-12 03:20:00,54.0,49.6,29.85,South,179,4.0,4.0,85,0.00,,CLR,0.00,VWS V14.00,2013-01-12 09:20:00,
2013-01-12 03:25:00,53.9,49.8,29.85,SSW,192,3.0,8.0,86,0.00,,CLR,0.00,VWS V14.00,2013-01-12 09:25:00,
2013-01-12 03:30:00,53.9,49.8,29.85,South,185,7.0,8.0,86,0.00,,CLR,0.00,VWS V14.00,2013-01-12 09:30:00,
2013-01-12 03:35:00,54.0,49.9,29.85,South,182,4.0,8.0,86,0.00,,CLR,0.00,VWS V14.00,2013-01-12 09:35:00,
2013-01-12 03:40:00,54.0,49.9,29.84,SSW,196,4.0,8.0,86,0.00,,CLR,0.00,VWS V14.00,2013-01-12 09:40:00,
2013-01-12 03:45:00,54.0,49.9,29.85,South,186,4.0,8.0,86,0.00,,CLR,0.00,VWS V14.00,2013-01-12 09:45:00,
2013-01-12 03:50:00,53.8,49.7,29.85,SSW,206,5.0,6.0,86,0.00,,CLR,0.00,VWS V14.00,2013-01-12 09:50:00,
2013-01-12 03:55:00,53.8,49.7,29.85,South,181,2.0,6.0,86,0.00,,CLR,0.00,VWS V14.00,2013-01-12 09:55:00,
2013-01-12 04:00:00,53.9,50.1,29.85,South,185,3.0,10.0,87,0.00,,CLR,0.00,VWS V14.00,2013-01-12 10:00:00,
2013-01-12 04:05:00,53.7,49.9,29.85,South,187,4.0,10.0,87,0.00,,CLR,0.00,VWS V14.00,2013-01-12 10:05:00,
2013-01-12 04:10:00,53.6,49.8,29.85,South,184,0.0,10.0,87,0.00,,CLR,0.00,VWS V14.00,2013-01-12 10:10:00,
2013-01-12 04:15:00,53.4,49.6,29.85,South,173,4.0,10.0,87,0.00,,CLR,0.00,VWS V14.00,2013-01-12 10:15:00,
2013-01-12 04:20:00,53.3,49.5,29.85,SSE,167,1.0,1.0,87,0.00,,CLR,0.00,VWS V14.00,2013-01-12 10:20:00,
2013-01-12 04:25:00,53.2,49.7,29.85,SSE,168,2.0,5.0,88,0.00,,CLR,0.00,VWS V14.00,2013-01-12 10:25:00,
2013-01-12 04:30:00,52.9,49.5,29.85,South,181,2.0,9.0,88,0.00,,CLR,0.00,VWS V14.00,2013-01-12 10:30:00,
2013-01-12 04:35:00,52.6,49.2,29.85,South,181,1.0,9.0,88,0.00,,CLR,0.00,VWS V14.00,2013-01-12 10:35:00,
2013-01-12 04:40:00,52.3,48.9,29.85,South,181,0.0,9.0,88,0.00,,CLR,0.00,VWS V14.00,2013-01-12 10:40:00,
2013-01-12 04:45:00,52.0,48.9,29.85,South,181,3.0,9.0,89,0.00,,CLR,0.00,VWS V14.00,2013-01-12 10:45:00,
2013-01-12 04:50:00,51.7,48.6,29.85,South,181,1.0,9.0,89,0.00,,CLR,0.00,VWS V14.00,2013-01-12 10:50:00,
2013-01-12 04:55:00,51.3,48.5,29.85,South,181,1.0,3.0,90,0.00,,CLR,0.00,VWS V14.00,2013-01-12 10:55:00,
2013-01-12 05:00:00,51.2,48.7,29.85,South,181,0.0,3.0,91,0.00,,CLR,0.00,VWS V14.00,2013-01-12 11:00:00,
2013-01-12 05:05:00,51.1,48.6,29.86,South,181,0.0,3.0,91,0.00,,CLR,0.00,VWS V14.00,2013-01-12 11:05:00,
2013-01-12 05:10:00,50.9,48.1,29.86,South,181,0.0,3.0,90,0.00,,CLR,0.00,VWS V14.00,2013-01-12 11:10:00,
2013-01-12 05:15:00,50.8,48.3,29.85,South,181,1.0,3.0,91,0.00,,CLR,0.00,VWS V14.00,2013-01-12 11:15:00,
2013-01-12 05:20:00,50.4,47.9,29.86,South,181,2.0,3.0,91,0.00,,CLR,0.00,VWS V14.00,2013-01-12 11:20:00,
2013-01-12 05:25:00,50.0,47.2,29.86,South,181,0.0,3.0,90,0.00,,CLR,0.00,VWS V14.00,2013-01-12 11:25:00,
2013-01-12 05:30:00,49.7,47.2,29.86,South,181,1.0,3.0,91,0.00,,CLR,0.00,VWS V14.00,2013-01-12 11:30:00,
2013-01-12 05:35:00,49.5,47.3,29.86,South,181,3.0,4.0,92,0.00,,CLR,0.00,VWS V14.00,2013-01-12 11:35:00,
2013-01-12 05:40:00,49.4,47.5,29.86,South,181,1.0,4.0,93,0.00,,CLR,0.00,VWS V14.00,2013-01-12 11:40:00,
2013-01-12 05:45:00,49.3,47.4,29.86,South,181,1.0,4.0,93,0.00,,CLR,0.00,VWS V14.00,2013-01-12 11:45:00,
2013-01-12 05:50:00,49.2,47.3,29.86,South,181,2.0,4.0,93,0.00,,CLR,0.00,VWS V14.00,2013-01-12 11:50:00,
2013-01-12 05:55:00,49.2,47.3,29.86,South,181,0.0,3.0,93,0.00,,CLR,0.00,VWS V14.00,2013-01-12 11:55:00,
2013-01-12 06:00:00,49.3,47.4,29.87,South,181,0.0,3.0,93,0.00,,CLR,0.00,VWS V14.00,2013-01-12 12:00:00,
2013-01-12 06:05:00,49.3,47.7,29.87,South,181,3.0,3.0,94,0.00,,CLR,0.00,VWS V14.00,2013-01-12 12:05:00,
2013-01-12 06:10:00,49.4,47.8,29.87,South,181,1.0,3.0,94,0.00,,CLR,0.00,VWS V14.00,2013-01-12 12:10:00,
2013-01-12 06:15:00,49.5,47.8,29.87,South,181,1.0,3.0,94,0.00,,CLR,0.00,VWS V14.00,2013-01-12 12:15:00,
2013-01-12 06:20:00,49.4,47.5,29.87,South,181,1.0,3.0,93,0.00,,CLR,0.00,VWS V14.00,2013-01-12 12:20:00,
2013-01-12 06:25:00,49.4,47.8,29.87,South,181,2.0,3.0,94,0.00,,CLR,0.00,VWS V14.00,2013-01-12 12:25:00,
2013-01-12 06:30:00,49.4,47.8,29.88,South,181,0.0,3.0,94,0.00,,CLR,0.00,VWS V14.00,2013-01-12 12:30:00,
2013-01-12 06:35:00,49.4,47.8,29.88,South,181,3.0,3.0,94,0.00,,CLR,0.00,VWS V14.00,2013-01-12 12:35:00,
2013-01-12 06:40:00,49.2,47.5,29.88,South,181,2.0,4.0,94,0.00,,CLR,0.00,VWS V14.00,2013-01-12 12:40:00,
2013-01-12 06:45:00,49.1,47.5,29.89,South,181,3.0,4.0,94,0.00,,CLR,0.00,VWS V14.00,2013-01-12 12:45:00,
2013-01-12 06:50:00,49.0,47.3,29.88,South,181,1.0,4.0,94,0.00,,CLR,0.00,VWS V14.00,2013-01-12 12:50:00,
2013-01-12 06:55:00,48.8,47.2,29.89,South,181,1.0,3.0,94,0.00,,CLR,0.00,VWS V14.00,2013-01-12 12:55:00,
2013-01-12 07:00:00,48.8,47.2,29.89,South,181,0.0,3.0,94,0.00,,CLR,0.00,VWS V14.00,2013-01-12 13:00:00,
2013-01-12 07:05:00,48.9,47.5,29.89,South,181,1.0,4.0,95,0.00,,CLR,0.00,VWS V14.00,2013-01-12 13:05:00,
2013-01-12 07:10:00,49.1,47.7,29.89,South,180,0.0,4.0,95,0.00,,CLR,0.00,VWS V14.00,2013-01-12 13:10:00,
2013-01-12 07:15:00,49.3,47.9,29.90,South,180,1.0,4.0,95,0.00,,CLR,0.00,VWS V14.00,2013-01-12 13:15:00,
2013-01-12 07:20:00,49.3,47.9,29.90,South,180,1.0,4.0,95,0.00,,CLR,0.00,VWS V14.00,2013-01-12 13:20:00,
2013-01-12 07:25:00,49.3,47.9,29.90,South,180,0.0,4.0,95,0.00,,CLR,0.00,VWS V14.00,2013-01-12 13:25:00,
2013-01-12 07:30:00,49.4,48.0,29.90,South,180,2.0,4.0,95,0.00,,CLR,0.00,VWS V14.00,2013-01-12 13:30:00,
2013-01-12 07:35:00,49.6,48.2,29.91,South,180,2.0,4.0,95,0.00,,CLR,0.00,VWS V14.00,2013-01-12 13:35:00,
2013-01-12 07:40:00,49.6,48.2,29.91,South,180,1.0,4.0,95,0.00,,CLR,0.00,VWS V14.00,2013-01-12 13:40:00,
2013-01-12 07:45:00,49.9,48.5,29.91,South,180,1.0,4.0,95,0.00,,CLR,0.00,VWS V14.00,2013-01-12 13:45:00,
2013-01-12 07:50:00,50.0,48.6,29.91,South,180,3.0,4.0,95,0.00,,CLR,0.00,VWS V14.00,2013-01-12 13:50:00,
2013-01-12 07:55:00,50.2,49.1,29.92,South,180,2.0,4.0,96,0.00,,CLR,0.00,VWS V14.00,2013-01-12 13:55:00,
2013-01-12 08:00:00,50.4,49.3,29.92,South,180,1.0,4.0,96,0.00,,CLR,0.00,VWS V14.00,2013-01-12 14:00:00,
2013-01-12 08:05:00,50.4,49.0,29.92,South,180,0.0,4.0,95,0.00,,CLR,0.00,VWS V14.00,2013-01-12 14:05:00,
2013-01-12 08:10:00,50.5,49.1,29.92,South,180,0.0,4.0,95,0.00,,CLR,0.00,VWS V14.00,2013-01-12 14:10:00,
2013-01-12 08:15:00,50.7,49.3,29.92,South,180,0.0,4.0,95,0.00,,CLR,0.00,VWS V14.00,2013-01-12 14:15:00,
2013-01-12 08:20:00,50.9,49.8,29.92,South,180,0.0,4.0,96,0.00,,CLR,0.00,VWS V14.00,2013-01-12 14:20:00,
2013-01-12 08:25:00,51.0,49.9,29.92,South,180,1.0,3.0,96,0.00,,CLR,0.00,VWS V14.00,2013-01-12 14:25:00,
2013-01-12 08:30:00,51.2,50.1,29.91,South,180,0.0,3.0,96,0.00,,CLR,0.00,VWS V14.00,2013-01-12 14:30:00,
2013-01-12 08:35:00,51.4,50.0,29.92,South,180,1.0,3.0,95,0.00,,CLR,0.00,VWS V14.00,2013-01-12 14:35:00,
2013-01-12 08:40:00,51.5,50.4,29.92,South,180,2.0,3.0,96,0.00,,CLR,0.00,VWS V14.00,2013-01-12 14:40:00,
2013-01-12 08:45:00,51.7,50.3,29.92,South,180,2.0,5.0,95,0.00,,CLR,0.00,VWS V14.00,2013-01-12 14:45:00,
2013-01-12 08:50:00,51.9,50.5,29.92,South,180,2.0,5.0,95,0.00,,CLR,0.00,VWS V14.00,2013-01-12 14:50:00,
2013-01-12 08:55:00,52.0,50.6,29.92,South,180,1.0,3.0,95,0.00,,CLR,0.00,VWS V14.00,2013-01-12 14:55:00,
2013-01-12 09:00:00,52.2,50.8,29.91,South,180,0.0,3.0,95,0.00,,CLR,0.00,VWS V14.00,2013-01-12 15:00:00,
2013-01-12 09:05:00,52.3,50.9,29.91,South,180,0.0,3.0,95,0.00,,CLR,0.00,VWS V14.00,2013-01-12 15:05:00,
2013-01-12 09:10:00,52.6,51.2,29.92,South,180,2.0,3.0,95,0.00,,CLR,0.00,VWS V14.00,2013-01-12 15:10:00,
2013-01-12 09:15:00,52.9,51.5,29.92,South,180,0.0,3.0,95,0.00,,CLR,0.00,VWS V14.00,2013-01-12 15:15:00,
2013-01-12 09:19:00,53.2,51.8,29.92,SSE,167,5.0,5.0,95,0.00,,CLR,0.00,VWS V14.00,2013-01-12 15:19:00,
2013-01-12 09:24:00,53.6,52.2,29.91,SSE,167,0.0,4.0,95,0.00,,CLR,0.00,VWS V14.00,2013-01-12 15:24:00,
2013-01-12 09:29:00,54.1,52.7,29.91,SSE,167,0.0,4.0,95,0.00,,CLR,0.00,VWS V14.00,2013-01-12 15:29:00,
2013-01-12 09:30:00,53.2,51.8,29.91,SSE,167,4.0,5.0,95,0.00,,-RA,0.00,VWS V14.00,2013-01-12 15:30:00,
2013-01-12 09:34:00,54.5,52.8,29.92,SSE,167,4.0,5.0,94,0.00,,CLR,0.00,VWS V14.00,2013-01-12 15:34:00,
2013-01-12 09:39:00,54.9,52.9,29.92,SSE,167,2.0,5.0,93,0.00,,CLR,0.00,VWS V14.00,2013-01-12 15:39:00,
2013-01-12 09:44:00,55.4,53.4,29.92,SSE,167,2.0,5.0,93,0.00,,CLR,0.00,VWS V14.00,2013-01-12 15:44:00,
2013-01-12 09:49:00,55.6,53.3,29.93,SSE,167,2.0,5.0,92,0.00,,CLR,0.00,VWS V14.00,2013-01-12 15:49:00,
2013-01-12 09:54:00,55.8,53.5,29.93,SSE,167,1.0,2.0,92,0.00,,CLR,0.00,VWS V14.00,2013-01-12 15:54:00,
2013-01-12 09:59:00,56.3,54.0,29.93,SSE,167,4.0,5.0,92,0.00,,SCT055,0.00,VWS V14.00,2013-01-12 15:59:00,
2013-01-12 10:00:00,55.6,53.3,29.93,SSE,167,0.0,5.0,92,0.00,,-RA,0.00,VWS V14.00,2013-01-12 16:00:00,
2013-01-12 10:04:00,57.1,54.2,29.93,South,182,2.0,6.0,90,0.00,,SCT055,0.00,VWS V14.00,2013-01-12 16:04:00,
2013-01-12 10:09:00,57.8,54.9,29.93,South,182,1.0,6.0,90,0.00,,SCT055,0.00,VWS V14.00,2013-01-12 16:09:00,
2013-01-12 10:14:00,58.1,54.6,29.92,SSW,209,0.0,6.0,88,0.00,,SCT055,0.00,VWS V14.00,2013-01-12 16:14:00,
2013-01-12 10:19:00,58.4,54.5,29.93,SSW,209,2.0,6.0,87,0.00,,BKN055,0.00,VWS V14.00,2013-01-12 16:19:00,
2013-01-12 10:24:00,58.8,54.3,29.93,SW,219,2.0,4.0,85,0.00,,BKN055,0.00,VWS V14.00,2013-01-12 16:24:00,
2013-01-12 10:29:00,59.2,55.0,29.93,SSW,194,2.0,6.0,86,0.00,,BKN055,0.00,VWS V14.00,2013-01-12 16:29:00,
2013-01-12 10:30:00,58.4,54.5,29.93,SSW,209,1.0,6.0,87,0.00,,-RA,0.00,VWS V14.00,2013-01-12 16:30:00,
2013-01-12 10:34:00,59.5,55.0,29.93,SSW,198,1.0,6.0,85,0.00,,BKN055,0.00,VWS V14.00,2013-01-12 16:34:00,
2013-01-12 10:39:00,59.8,54.6,29.93,SSW,207,1.0,6.0,83,0.00,,BKN110,0.00,VWS V14.00,2013-01-12 16:39:00,
2013-01-12 10:44:00,60.2,55.0,29.92,West,271,4.0,6.0,83,0.00,,BKN110,0.00,VWS V14.00,2013-01-12 16:44:00,
2013-01-12 10:49:00,60.5,54.7,29.91,WSW,246,4.0,6.0,81,0.00,,BKN110,0.00,VWS V14.00,2013-01-12 16:49:00,
2013-01-12 10:54:00,60.8,55.3,29.91,SW,234,0.0,5.0,82,0.00,,BKN110,0.00,VWS V14.00,2013-01-12 16:54:00,
2013-01-12 10:59:00,61.3,55.1,29.90,SW,229,1.0,5.0,80,0.00,,SCT095,0.00,VWS V14.00,2013-01-12 16:59:00,
2013-01-12 11:00:00,60.5,54.7,29.91,SW,226,4.0,6.0,81,0.00,,-RA,0.00,VWS V14.00,2013-01-12 17:00:00,
2013-01-12 11:04:00,61.6,55.0,29.91,SW,227,2.0,5.0,79,0.00,,SCT095,0.00,VWS V14.00,2013-01-12 17:04:00,
2013-01-12 11:09:00,61.8,55.2,29.90,SW,229,3.0,5.0,79,0.00,,SCT095,0.00,VWS V14.00,2013-01-12 17:09:00,
2013-01-12 11:14:00,61.5,53.9,29.89,West,266,3.0,6.0,76,0.00,,SCT095,0.00,VWS V14.00,2013-01-12 17:14:00,
2013-01-12 11:19:00,61.4,54.5,29.90,West,264,3.0,6.0,78,0.00,,CLR,0.00,VWS V14.00,2013-01-12 17:19:00,
2013-01-12 11:24:00,61.5,53.9,29.90,WSW,250,4.0,7.0,76,0.00,,CLR,0.00,VWS V14.00,2013-01-12 17:24:00,
2013-01-12 11:29:00,61.6,54.0,29.89,West,278,3.0,7.0,76,0.00,,CLR,0.00,VWS V14.00,2013-01-12 17:29:00,
2013-01-12 11:30:00,61.4,54.1,29.90,WSW,250,6.0,6.0,77,0.00,,-RA,0.00,VWS V14.00,2013-01-12 17:30:00,
2013-01-12 11:34:00,61.6,53.6,29.89,West,279,2.0,7.0,75,0.00,,CLR,0.00,VWS V14.00,2013-01-12 17:34:00,
2013-01-12 11:39:00,61.6,53.6,29.88,West,279,1.0,7.0,75,0.00,,BKN050,0.00,VWS V14.00,2013-01-12 17:39:00,
2013-01-12 11:44:00,61.4,53.8,29.89,West,279,0.0,7.0,76,0.00,,BKN050,0.00,VWS V14.00,2013-01-12 17:44:00,
2013-01-12 11:49:00,61.4,53.4,29.87,West,279,1.0,7.0,75,0.00,,BKN050,0.00,VWS V14.00,2013-01-12 17:49:00,
2013-01-12 11:54:00,61.6,53.6,29.87,NNE,15,0.0,5.0,75,0.00,,BKN050,0.00,VWS V14.00,2013-01-12 17:54:00,
2013-01-12 11:59:00,61.7,53.7,29.87,NNE,15,0.0,5.0,75,0.00,,OVC050,0.00,VWS V14.00,2013-01-12 17:59:00,
2013-01-12 12:00:00,61.4,53.4,29.87,WNW,289,3.0,7.0,75,0.00,,-RA,0.00,VWS V14.00,2013-01-12 18:00:00,
2013-01-12 12:04:00,61.6,54.0,29.87,NNE,15,1.0,5.0,76,0.00,,OVC050,0.00,VWS V14.00,2013-01-12 18:04:00,
2013-01-12 12:09:00,61.4,53.4,29.87,NNE,15,0.0,5.0,75,0.00,,OVC050,0.00,VWS V14.00,2013-01-12 18:09:00,
2013-01-12 12:14:00,61.4,53.4,29.87,NNE,15,0.0,5.0,75,0.00,,OVC050,0.00,VWS V14.00,2013-01-12 18:14:00,
2013-01-12 12:19:00,61.3,53.7,29.86,NNE,15,0.0,5.0,76,0.00,,OVC048,0.00,VWS V14.00,2013-01-12 18:19:00,
2013-01-12 12:24:00,61.3,53.7,29.87,NNE,15,0.0,1.0,76,0.00,,OVC048,0.00,VWS V14.00,2013-01-12 18:24:00,
2013-01-12 12:29:00,61.4,53.8,29.87,NNE,15,0.0,1.0,76,0.00,,OVC048,0.00,VWS V14.00,2013-01-12 18:29:00,
2013-01-12 12:30:00,61.3,53.7,29.86,NNE,15,0.0,5.0,76,0.00,,-RA,0.00,VWS V14.00,2013-01-12 18:30:00,
2013-01-12 12:34:00,61.5,53.5,29.86,NNE,15,0.0,2.0,75,0.00,,OVC048,0.00,VWS V14.00,2013-01-12 18:34:00,
2013-01-12 12:39:00,61.4,53.4,29.86,NNE,15,0.0,2.0,75,0.00,,OVC049,0.00,VWS V14.00,2013-01-12 18:39:00,
2013-01-12 12:44:00,61.4,53.4,29.86,NNE,15,0.0,2.0,75,0.00,,OVC049,0.00,VWS V14.00,2013-01-12 18:44:00,
2013-01-12 12:49:00,61.3,53.7,29.86,NNE,15,0.0,2.0,76,0.00,,OVC049,0.00,VWS V14.00,2013-01-12 18:49:00,
2013-01-12 12:54:00,61.3,53.7,29.86,NNE,15,0.0,1.0,76,0.00,,OVC049,0.00,VWS V14.00,2013-01-12 18:54:00,
2013-01-12 12:59:00,61.2,53.9,29.85,NNE,15,3.0,3.0,77,0.00,,OVC049,0.00,VWS V14.00,2013-01-12 18:59:00,
2013-01-12 13:00:00,61.3,53.7,29.86,NNE,15,0.0,2.0,76,0.00,,-RA,0.00,VWS V14.00,2013-01-12 19:00:00,
2013-01-12 13:04:00,61.0,54.1,29.85,NNE,15,0.0,4.0,78,0.00,,OVC043,0.00,VWS V14.00,2013-01-12 19:04:00,
2013-01-12 13:09:00,60.8,53.5,29.84,NNE,15,0.0,4.0,77,0.00,,OVC043,0.00,VWS V14.00,2013-01-12 19:09:00,
2013-01-12 13:14:00,60.6,53.7,29.86,NNE,15,0.0,4.0,78,0.00,,OVC043,0.00,VWS V14.00,2013-01-12 19:14:00,
2013-01-12 13:19:00,60.5,53.6,29.85,NNE,15,2.0,4.0,78,0.00,,OVC047,0.00,VWS V14.00,2013-01-12 19:19:00,
2013-01-12 13:24:00,60.3,54.5,29.84,NNE,15,0.0,5.0,81,0.00,,OVC047,0.00,VWS V14.00,2013-01-12 19:24:00,
2013-01-12 13:29:00,60.1,54.3,29.85,NNE,15,0.0,5.0,81,0.00,,OVC047,0.00,VWS V14.00,2013-01-12 19:29:00,
2013-01-12 13:30:00,60.5,54.0,29.84,NNE,15,3.0,4.0,79,0.00,,-RA,0.00,VWS V14.00,2013-01-12 19:30:00,
2013-01-12 13:34:00,59.9,53.4,29.87,NNE,15,2.0,5.0,79,0.00,,OVC047,0.00,VWS V14.00,2013-01-12 19:34:00,
2013-01-12 13:39:00,59.7,53.5,29.87,NW,306,1.0,5.0,80,0.00,,OVC041,0.00,VWS V14.00,2013-01-12 19:39:00,
2013-01-12 13:44:00,59.5,53.3,29.86,NW,317,1.0,5.0,80,0.00,,OVC041,0.00,VWS V14.00,2013-01-12 19:44:00,
2013-01-12 13:49:00,59.3,53.5,29.85,NW,317,0.0,5.0,81,0.00,,OVC041,0.00,VWS V14.00,2013-01-12 19:49:00,
2013-01-12 13:54:00,59.1,54.3,29.85,NW,317,2.0,3.0,84,0.00,,OVC041,0.00,VWS V14.00,2013-01-12 19:54:00,
2013-01-12 13:59:00,58.6,54.4,29.84,NW,317,0.0,3.0,86,0.00,,RA,0.00,VWS V14.00,2013-01-12 19:59:00,
2013-01-12 14:00:00,59.3,53.8,29.85,NW,317,0.0,5.0,82,0.00,,-RA,0.00,VWS V14.00,2013-01-12 20:00:00,
2013-01-12 14:04:00,58.0,54.8,29.85,NW,317,2.0,3.0,89,0.00,,RA,0.00,VWS V14.00,2013-01-12 20:04:00,
2013-01-12 14:09:00,57.4,54.5,29.85,NW,317,0.0,3.0,90,0.00,,RA,0.00,VWS V14.00,2013-01-12 20:09:00,
2013-01-12 14:14:00,57.1,54.5,29.85,NW,317,1.0,3.0,91,0.00,,RA,0.00,VWS V14.00,2013-01-12 20:14:00,
2013-01-12 14:19:00,56.8,54.2,29.84,NW,317,1.0,3.0,91,0.00,,RA,0.00,VWS V14.00,2013-01-12 20:19:00,
2013-01-12 14:24:00,56.6,54.3,29.83,NW,317,1.0,4.0,92,0.00,,RA,0.00,VWS V14.00,2013-01-12 20:24:00,
2013-01-12 14:29:00,56.3,54.0,29.84,NW,317,1.0,4.0,92,0.00,,RA,0.00,VWS V14.00,2013-01-12 20:29:00,
2013-01-12 14:30:00,56.8,54.2,29.84,NW,317,2.0,3.0,91,0.00,,-RA,0.00,VWS V14.00,2013-01-12 20:30:00,
2013-01-12 14:34:00,56.1,53.8,29.84,NW,317,0.0,4.0,92,0.00,,RA,0.00,VWS V14.00,2013-01-12 20:34:00,
2013-01-12 14:39:00,56.0,53.7,29.83,NW,317,0.0,4.0,92,0.00,,RA,0.00,VWS V14.00,2013-01-12 20:39:00,
2013-01-12 14:44:00,55.9,53.9,29.83,NW,317,0.0,4.0,93,0.00,,RA,0.00,VWS V14.00,2013-01-12 20:44:00,
2013-01-12 14:49:00,55.6,53.6,29.84,NW,317,0.0,4.0,93,0.00,,RA,0.00,VWS V14.00,2013-01-12 20:49:00,
2013-01-12 14:54:00,55.3,53.6,29.85,NW,317,0.0,3.0,94,0.00,,RA,0.00,VWS V14.00,2013-01-12 20:54:00,
2013-01-12 14:59:00,55.2,53.5,29.85,NW,317,0.0,3.0,94,0.00,,RA,0.00,VWS V14.00,2013-01-12 20:59:00,
2013-01-12 15:00:00,55.5,53.8,29.84,NW,317,0.0,4.0,94,0.00,,-RA,0.00,VWS V14.00,2013-01-12 21:00:00,
2013-01-12 15:04:00,55.0,53.6,29.85,NW,317,1.0,3.0,95,0.00,,RA,0.00,VWS V14.00,2013-01-12 21:04:00,
2013-01-12 15:09:00,54.8,53.4,29.84,NE,36,3.0,4.0,95,0.00,,RA,0.00,VWS V14.00,2013-01-12 21:09:00,
2013-01-12 15:14:00,54.6,52.9,29.83,NNE,30,3.0,5.0,94,0.00,,RA,0.00,VWS V14.00,2013-01-12 21:14:00,
2013-01-12 15:19:00,54.5,52.8,29.83,NNE,13,4.0,6.0,94,0.00,,RA,0.00,VWS V14.00,2013-01-12 21:19:00,
2013-01-12 15:24:00,54.4,53.0,29.82,NNE,15,3.0,4.0,95,0.00,,RA,0.00,VWS V14.00,2013-01-12 21:24:00,
2013-01-12 15:29:00,54.3,52.9,29.80,North,9,7.0,8.0,95,0.00,,RA,0.00,VWS V14.00,2013-01-12 21:29:00,
2013-01-12 15:30:00,54.5,53.1,29.83,NNE,16,3.0,6.0,95,0.00,,-RA,0.00,VWS V14.00,2013-01-12 21:30:00,
2013-01-12 15:34:00,54.3,52.9,29.82,NE,43,3.0,8.0,95,0.00,,RA,0.00,VWS V14.00,2013-01-12 21:34:00,
2013-01-12 15:39:00,54.3,52.9,29.82,NE,38,0.0,8.0,95,0.00,,-RA,0.00,VWS V14.00,2013-01-12 21:39:00,
2013-01-12 15:44:00,54.2,52.8,29.81,NE,46,5.0,8.0,95,0.00,,-RA,0.00,VWS V14.00,2013-01-12 21:44:00,
2013-01-12 15:48:00,54.2,52.8,29.82,NE,37,4.0,8.0,95,0.00,,-RA,0.00,VWS V14.00,2013-01-12 21:48:00,
2013-01-12 15:53:00,54.1,52.7,29.80,NE,35,7.0,8.0,95,0.00,,-RA,0.00,VWS V14.00,2013-01-12 21:53:00,
2013-01-12 15:58:00,54.1,52.7,29.79,NNE,28,5.0,11.0,95,0.00,,RA,0.00,VWS V14.00,2013-01-12 21:58:00,
2013-01-12 16:00:00,54.2,52.8,29.81,NNE,31,5.0,8.0,95,0.00,,-RA,0.00,VWS V14.00,2013-01-12 22:00:00,
2013-01-12 16:03:00,54.1,52.7,29.79,NE,42,6.0,11.0,95,0.00,,RA,0.00,VWS V14.00,2013-01-12 22:03:00,
2013-01-12 16:08:00,54.0,52.6,29.78,North,11,5.0,11.0,95,0.00,,RA,0.00,VWS V14.00,2013-01-12 22:08:00,
2013-01-12 16:13:00,54.0,52.6,29.79,NE,34,4.0,11.0,95,0.00,,RA,0.00,VWS V14.00,2013-01-12 22:13:00,
2013-01-12 16:18:00,54.0,52.6,29.79,NNE,17,1.0,11.0,95,0.00,,RA,0.00,VWS V14.00,2013-01-12 22:18:00,
2013-01-12 16:23:00,53.9,52.5,29.78,NNE,27,3.0,4.0,95,0.00,,RA,0.00,VWS V14.00,2013-01-12 22:23:00,
2013-01-12 16:28:00,53.7,52.3,29.78,North,349,1.0,4.0,95,0.00,,RA,0.00,VWS V14.00,2013-01-12 22:28:00,
2013-01-12 16:30:00,54.0,52.6,29.79,NNE,22,2.0,11.0,95,0.00,,-RA,0.00,VWS V14.00,2013-01-12 22:30:00,
2013-01-12 16:33:00,53.6,52.2,29.78,NNE,15,0.0,6.0,95,0.00,,RA,0.00,VWS V14.00,2013-01-12 22:33:00,
2013-01-12 16:38:00,53.7,52.6,29.79,NNE,19,1.0,6.0,96,0.00,,RA,0.00,VWS V14.00,2013-01-12 22:38:00,
2013-01-12 16:43:00,53.7,52.6,29.79,NNE,19,1.0,6.0,96,0.00,,RA,0.00,VWS V14.00,2013-01-12 22:43:00,
2013-01-12 16:48:00,53.6,52.5,29.78,North,9,4.0,6.0,96,0.00,,RA,0.00,VWS V14.00,2013-01-12 22:48:00,
2013-01-12 16:53:00,53.6,52.5,29.77,NE,34,4.0,5.0,96,0.00,,RA,0.00,VWS V14.00,2013-01-12 22:53:00,
2013-01-12 16:58:00,53.5,52.4,29.77,North,355,3.0,6.0,96,0.00,,RA,0.00,VWS V14.00,2013-01-12 22:58:00,
2013-01-12 17:00:00,53.6,52.5,29.78,NNE,22,4.0,6.0,96,0.00,,-RA,0.00,VWS V14.00,2013-01-12 23:00:00,
2013-01-12 17:03:00,53.2,52.1,29.77,NNW,346,0.0,9.0,96,0.00,,RA,0.00,VWS V14.00,2013-01-12 23:03:00,
2013-01-12 17:08:00,52.3,50.9,29.76,NNE,31,3.0,12.0,95,0.00,,RA,0.00,VWS V14.00,2013-01-12 23:08:00,
2013-01-12 17:13:00,51.5,49.8,29.75,North,5,10.0,13.0,94,0.00,,RA,0.00,VWS V14.00,2013-01-12 23:13:00,
2013-01-12 17:18:00,50.7,49.0,29.77,North,5,4.0,14.0,94,0.00,,RA,0.00,VWS V14.00,2013-01-12 23:18:00,
2013-01-12 17:23:00,50.4,48.7,29.78,NE,34,7.0,8.0,94,0.00,,RA,0.00,VWS V14.00,2013-01-12 23:23:00,
2013-01-12 17:28:00,50.1,48.7,29.75,NNE,15,5.0,11.0,95,0.00,,RA,0.00,VWS V14.00,2013-01-12 23:28:00,
2013-01-12 17:30:00,50.6,48.9,29.77,NNE,13,3.0,14.0,94,0.00,,-RA,0.00,VWS V14.00,2013-01-12 23:30:00,
2013-01-12 17:33:00,49.9,48.5,29.76,NNE,33,4.0,11.0,95,0.00,,RA,0.00,VWS V14.00,2013-01-12 23:33:00,
2013-01-12 17:38:00,49.6,48.2,29.77,NNE,15,3.0,11.0,95,0.00,,RA,0.00,VWS V14.00,2013-01-12 23:38:00,
2013-01-12 17:43:00,49.3,47.9,29.76,North,11,8.0,11.0,95,0.00,,RA,0.00,VWS V14.00,2013-01-12 23:43:00,
2013-01-12 17:48:00,49.0,47.6,29.77,North,5,4.0,11.0,95,0.00,,RA,0.00,VWS V14.00,2013-01-12 23:48:00,
2013-01-12 17:53:00,48.6,47.2,29.77,North,355,9.0,11.0,95,0.00,,RA,0.00,VWS V14.00,2013-01-12 23:53:00,
2013-01-12 17:58:00,48.3,46.9,29.77,NE,43,9.0,12.0,95,0.00,,OVC005,0.00,VWS V14.00,2013-01-12 23:58:00,
2013-01-12 18:00:00,48.9,47.5,29.77,NNW,347,2.0,11.0,95,0.00,,-RA,0.00,VWS V14.00,2013-01-13 00:00:00,
2013-01-12 18:03:00,48.1,46.7,29.79,NW,322,0.0,12.0,95,0.00,,OVC005,0.00,VWS V14.00,2013-01-13 00:03:00,
2013-01-12 18:08:00,47.9,46.5,29.78,NNW,348,5.0,12.0,95,0.00,,OVC005,0.00,VWS V14.00,2013-01-13 00:08:00,
2013-01-12 18:13:00,47.7,46.3,29.78,WNW,302,5.0,12.0,95,0.00,,OVC005,0.00,VWS V14.00,2013-01-13 00:13:00,
2013-01-12 18:18:00,47.5,46.1,29.78,NE,37,7.0,12.0,95,0.00,, +RA,0.00,VWS V14.00,2013-01-13 00:18:00,
2013-01-12 18:23:00,47.2,45.8,29.77,NNE,30,9.0,12.0,95,0.00,, +RA,0.00,VWS V14.00,2013-01-13 00:23:00,
2013-01-12 18:28:00,46.8,45.5,29.76,NE,34,13.0,14.0,95,0.00,, +RA,0.00,VWS V14.00,2013-01-13 00:28:00,
2013-01-12 18:30:00,47.4,46.0,29.78,NNE,27,2.0,12.0,95,0.00,,-RA,0.00,VWS V14.00,2013-01-13 00:30:00,
2013-01-12 18:33:00,46.5,45.2,29.76,NE,41,8.0,17.0,95,0.00,, +RA,0.00,VWS V14.00,2013-01-13 00:33:00,
2013-01-12 18:38:00,46.4,45.0,29.76,NE,49,7.0,17.0,95,0.00,,OVC017,0.00,VWS V14.00,2013-01-13 00:38:00,
2013-01-12 18:43:00,46.2,44.8,29.75,NNE,17,4.0,17.0,95,0.00,,OVC017,0.00,VWS V14.00,2013-01-13 00:43:00,
2013-01-12 18:48:00,45.9,44.5,29.73,NE,51,13.0,19.0,95,0.00,,OVC017,0.00,VWS V14.00,2013-01-13 00:48:00,
2013-01-12 18:53:00,45.6,44.2,29.71,NE,36,16.0,24.0,95,0.00,,OVC017,0.00,VWS V14.00,2013-01-13 00:53:00,
2013-01-12 18:58:00,45.4,44.0,29.72,NE,50,7.0,24.0,95,0.00,,OVC005,0.00,VWS V14.00,2013-01-13 00:58:00,
2013-01-12 19:00:00,45.8,44.5,29.73,NE,49,8.0,19.0,95,0.00,,-RA,0.00,VWS V14.00,2013-01-13 01:00:00,
2013-01-12 19:03:00,45.2,43.9,29.69,NE,53,13.0,24.0,95,0.00,,OVC005,0.00,VWS V14.00,2013-01-13 01:03:00,
2013-01-12 19:08:00,45.2,43.9,29.71,NE,46,7.0,24.0,95,0.00,,OVC005,0.00,VWS V14.00,2013-01-13 01:08:00,
2013-01-12 19:13:00,45.2,43.9,29.74,North,9,1.0,24.0,95,0.00,,OVC005,0.00,VWS V14.00,2013-01-13 01:13:00,
2013-01-12 19:18:00,45.2,43.9,29.74,North,11,3.0,24.0,95,0.00,,RA,0.00,VWS V14.00,2013-01-13 01:18:00,
2013-01-12 19:23:00,45.1,43.8,29.73,NE,34,7.0,10.0,95,0.00,,RA,0.00,VWS V14.00,2013-01-13 01:23:00,
2013-01-12 19:28:00,44.9,43.6,29.73,North,5,8.0,15.0,95,0.00,,RA,0.00,VWS V14.00,2013-01-13 01:28:00,
2013-01-12 19:30:00,45.2,43.9,29.74,NE,34,5.0,24.0,95,0.00,,-RA,0.00,VWS V14.00,2013-01-13 01:30:00,
2013-01-12 19:33:00,44.8,43.5,29.72,North,360,4.0,15.0,95,0.00,,RA,0.00,VWS V14.00,2013-01-13 01:33:00,
2013-01-12 19:38:00,44.7,43.4,29.73,North,11,4.0,15.0,95,0.00,, +RA,0.00,VWS V14.00,2013-01-13 01:38:00,
2013-01-12 19:43:00,44.6,43.3,29.74,West,280,5.0,15.0,95,0.00,, +RA,0.00,VWS V14.00,2013-01-13 01:43:00,
2013-01-12 19:48:00,44.6,43.5,29.71,NE,55,5.0,15.0,96,0.00,, +RA,0.00,VWS V14.00,2013-01-13 01:48:00,
2013-01-12 19:53:00,44.4,43.3,29.73,NNE,26,5.0,11.0,96,0.00,, +RA,0.00,VWS V14.00,2013-01-13 01:53:00,
2013-01-12 19:58:00,44.4,43.3,29.75,NW,310,4.0,11.0,96,0.00,, +RA,0.00,VWS V14.00,2013-01-13 01:58:00,
2013-01-12 20:00:00,44.5,43.4,29.72,NE,36,7.0,15.0,96,0.00,,-RA,0.00,VWS V14.00,2013-01-13 02:00:00,
2013-01-12 20:03:00,44.3,43.2,29.75,NNE,25,5.0,12.0,96,0.00,,OVC010,0.00,VWS V14.00,2013-01-13 02:03:00,
2013-01-12 20:08:00,44.2,43.1,29.73,NNW,344,4.0,12.0,96,0.00,,OVC010,0.00,VWS V14.00,2013-01-13 02:08:00,
2013-01-12 20:13:00,44.0,42.9,29.73,NNE,12,4.0,12.0,96,0.00,,OVC010,0.00,VWS V14.00,2013-01-13 02:13:00,
2013-01-12 20:18:00,43.7,42.6,29.71,NE,42,5.0,14.0,96,0.00,, +RA,0.00,VWS V14.00,2013-01-13 02:18:00,
2013-01-12 20:23:00,43.6,42.5,29.75,WNW,290,8.0,9.0,96,0.00,, +RA,0.00,VWS V14.00,2013-01-13 02:23:00,
2013-01-12 20:28:00,43.4,42.3,29.75,West,259,2.0,16.0,96,0.00,, +RA,0.00,VWS V14.00,2013-01-13 02:28:00,
2013-01-12 20:30:00,43.7,42.6,29.72,NE,42,7.0,14.0,96,0.00,,-RA,0.00,VWS V14.00,2013-01-13 02:30:00,
2013-01-12 20:33:00,43.0,41.9,29.74,NNW,330,5.0,16.0,96,0.00,, +RA,0.00,VWS V14.00,2013-01-13 02:33:00,
2013-01-12 20:38:00,42.6,41.3,29.74,NW,304,1.0,16.0,95,0.00,, +RA,0.00,VWS V14.00,2013-01-13 02:38:00,
2013-01-12 20:43:00,42.3,41.0,29.75,NW,308,3.0,16.0,95,0.00,, +RA,0.00,VWS V14.00,2013-01-13 02:43:00,
2013-01-12 20:48:00,41.9,40.6,29.76,NW,317,7.0,16.0,95,0.00,, +RA,0.00,VWS V14.00,2013-01-13 02:48:00,
2013-01-12 20:53:00,41.6,40.3,29.75,NW,307,12.0,12.0,95,0.00,, +RA,0.00,VWS V14.00,2013-01-13 02:53:00,
2013-01-12 20:58:00,41.4,40.1,29.76,NNW,346,1.0,14.0,95,0.00,, +RA,0.00,VWS V14.00,2013-01-13 02:58:00,
2013-01-12 21:00:00,41.8,40.5,29.76,NNW,327,0.0,16.0,95,0.00,,-RA,0.00,VWS V14.00,2013-01-13 03:00:00,
2013-01-12 21:03:00,41.2,39.9,29.76,NE,38,6.0,14.0,95,0.00,,OVC010,0.00,VWS V14.00,2013-01-13 03:03:00,
2013-01-12 21:08:00,41.1,39.8,29.76,NNE,13,8.0,14.0,95,0.00,,OVC010,0.00,VWS V14.00,2013-01-13 03:08:00,
2013-01-12 21:13:00,41.0,39.7,29.77,NW,308,4.0,20.0,95,0.00,,OVC010,0.00,VWS V14.00,2013-01-13 03:13:00,
2013-01-12 21:18:00,40.8,39.5,29.78,West,263,4.0,20.0,95,0.00,, +RA,0.00,VWS V14.00,2013-01-13 03:18:00,
2013-01-12 21:23:00,40.6,39.3,29.77,NNW,327,9.0,10.0,95,0.00,, +RA,0.00,VWS V14.00,2013-01-13 03:23:00,
2013-01-12 21:28:00,40.3,39.0,29.77,NNW,346,12.0,16.0,95,0.00,, +RA,0.00,VWS V14.00,2013-01-13 03:28:00,
2013-01-12 21:30:00,40.7,39.4,29.78,NW,314,4.0,20.0,95,0.00,,-RA,0.00,VWS V14.00,2013-01-13 03:30:00,
2013-01-12 21:33:00,39.9,38.6,29.76,NNE,14,5.0,16.0,95,0.00,, +RA,0.00,VWS V14.00,2013-01-13 03:33:00,
2013-01-12 21:38:00,39.6,38.3,29.76,North,5,4.0,18.0,95,0.00,,OVC020,0.00,VWS V14.00,2013-01-13 03:38:00,
2013-01-12 21:43:00,39.4,37.8,29.77,NW,324,8.0,19.0,94,0.00,,OVC020,0.00,VWS V14.00,2013-01-13 03:43:00,
2013-01-12 21:48:00,39.2,37.9,29.75,North,10,4.0,19.0,95,0.00,,OVC020,0.00,VWS V14.00,2013-01-13 03:48:00,
2013-01-12 21:53:00,39.0,37.7,29.76,North,355,10.0,18.0,95,0.00,,OVC020,0.00,VWS V14.00,2013-01-13 03:53:00,
2013-01-12 21:58:00,38.8,37.2,29.74,NNW,331,9.0,23.0,94,0.00,,OVC020,0.00,VWS V14.00,2013-01-13 03:58:00,
2013-01-12 22:00:00,39.1,37.8,29.75,NNW,331,1.0,19.0,95,0.00,,-RA,0.00,VWS V14.00,2013-01-13 04:00:00,
2013-01-12 22:03:00,38.7,37.1,29.74,ESE,105,1.0,23.0,94,0.00,,RA,0.00,VWS V14.00,2013-01-13 04:03:00,
2013-01-12 22:08:00,38.7,37.1,29.75,North,355,7.0,23.0,94,0.00,,RA,0.00,VWS V14.00,2013-01-13 04:08:00,
2013-01-12 22:13:00,38.7,37.4,29.76,NNW,342,12.0,23.0,95,0.00,,RA,0.00,VWS V14.00,2013-01-13 04:13:00,
2013-01-12 22:18:00,38.7,37.4,29.74,NE,40,5.0,23.0,95,0.00,,-RA,0.00,VWS V14.00,2013-01-13 04:18:00,
2013-01-12 22:23:00,38.3,36.7,29.75,NNE,22,8.0,9.0,94,0.00,,-RA,0.00,VWS V14.00,2013-01-13 04:23:00,
2013-01-12 22:28:00,37.8,36.2,29.75,NE,38,6.0,19.0,94,0.00,,-RA,0.00,VWS V14.00,2013-01-13 04:28:00,
2013-01-12 22:30:00,38.5,37.2,29.75,NNW,329,9.0,23.0,95,0.00,,-RA,0.00,VWS V14.00,2013-01-13 04:30:00,
2013-01-12 22:33:00,37.5,35.9,29.75,NNE,28,7.0,19.0,94,0.00,,-RA,0.00,VWS V14.00,2013-01-13 04:33:00,
2013-01-12 22:38:00,37.3,35.7,29.75,NNE,32,8.0,19.0,94,0.00,,RA,0.00,VWS V14.00,2013-01-13 04:38:00,
2013-01-12 22:43:00,37.0,35.2,29.75,NNE,26,8.0,19.0,93,0.00,,RA,0.00,VWS V14.00,2013-01-13 04:43:00,
2013-01-12 22:48:00,36.9,35.1,29.76,NNE,13,10.0,19.0,93,0.00,,RA,0.00,VWS V14.00,2013-01-13 04:48:00,
2013-01-12 22:53:00,36.8,35.2,29.77,North,355,3.0,10.0,94,0.00,,RA,0.00,VWS V14.00,2013-01-13 04:53:00,
2013-01-12 22:58:00,36.8,35.2,29.78,North,350,3.0,13.0,94,0.00,,RA,0.00,VWS V14.00,2013-01-13 04:58:00,
2013-01-12 23:00:00,36.7,35.1,29.79,North,360,4.0,14.0,94,0.00,,RA,0.00,VWS V14.00,2013-01-13 05:00:00,
2013-01-12 23:01:00,36.7,35.1,29.79,NW,319,5.0,14.0,94,0.00,,RA,0.00,VWS V14.00,2013-01-13 05:01:00,
2013-01-12 23:02:00,36.7,35.1,29.79,NNW,340,7.0,14.0,94,0.00,,RA,0.00,VWS V14.00,2013-01-13 05:02:00,
2013-01-12 23:07:00,36.5,34.9,29.80,NW,319,3.0,14.0,94,0.00,,RA,0.00,VWS V14.00,2013-01-13 05:07:00,
2013-01-12 23:12:00,36.3,34.7,29.82,WNW,288,3.0,14.0,94,0.00,,RA,0.00,VWS V14.00,2013-01-13 05:12:00,
2013-01-12 23:17:00,36.2,34.6,29.82,West,277,4.0,14.0,94,0.00,,RA,0.00,VWS V14.00,2013-01-13 05:17:00,
2013-01-12 23:22:00,36.0,34.4,29.82,North,5,4.0,10.0,94,0.00,, +RA,0.00,VWS V14.00,2013-01-13 05:22:00,
2013-01-12 23:27:00,35.9,34.3,29.81,North,5,4.0,10.0,94,0.00,, +RA,0.00,VWS V14.00,2013-01-13 05:27:00,
2013-01-12 23:30:00,36.1,34.5,29.82,NNW,334,5.0,14.0,94,0.00,,-RA,0.00,VWS V14.00,2013-01-13 05:30:00,
2013-01-12 23:32:00,35.7,34.2,29.81,NW,305,4.0,10.0,94,0.00,, +RA,0.00,VWS V14.00,2013-01-13 05:32:00,
2013-01-12 23:37:00,35.5,34.0,29.82,NW,305,4.0,12.0,94,0.00,, +RA,0.00,VWS V14.00,2013-01-13 05:37:00,
2013-01-12 23:42:00,35.1,33.5,29.83,WSW,246,5.0,12.0,94,0.00,, +RA,0.00,VWS V14.00,2013-01-13 05:42:00,
2013-01-12 23:47:00,34.6,33.0,29.84,North,360,18.0,18.0,94,0.00,, +RA,0.00,VWS V14.00,2013-01-13 05:47:00,
2013-01-12 23:52:00,34.2,32.7,29.84,WNW,290,2.0,17.0,94,0.00,, +RA,0.00,VWS V14.00,2013-01-13 05:52:00,
2013-01-12 23:57:00,33.9,32.1,29.86,North,351,8.0,17.0,93,0.00,, +RA,0.00,VWS V14.00,2013-01-13 05:57:00,